"Sample Date","Sample Time","Sensor Name","Sample Value","Units","Flow Rate","Sample Interval","Sample Volume","Laser Status","Number Channels","Micron Size 0","Counts/Channel 0","Micron Size 1","Counts/Channel 1","Micron Size 2","Counts/Channel 2","Micron Size 3","Counts/Channel 3","Micron Size 4","Counts/Channel 4","Micron Size 5","Counts/Channel 5","Micron Size 6","Counts/Channel 6","Micron Size 7","Counts/Channel 7","Micron Size 8","Counts/Channel 8","Micron Size 9","Counts/Channel 9","Micron Size 10","Counts/Channel 10","Micron Size 11","Counts/Channel 11","Micron Size 12","Counts/Channel 12","Micron Size 13","Counts/Channel 13","Micron Size 14","Counts/Channel 14","Micron Size 15","Counts/Channel 15","Micron Size 16","Counts/Channel 16","Micron Size 17","Counts/Channel 17","Micron Size 18","Counts/Channel 18","Micron Size 19","Counts/Channel 19","Micron Size 20","Counts/Channel 20","Micron Size 21","Counts/Channel 21","Micron Size 22","Counts/Channel 22","Micron Size 23","Counts/Channel 23","Micron Size 24","Counts/Channel 24","Micron Size 25","Counts/Channel 25","Micron Size 26","Counts/Channel 26","Micron Size 27","Counts/Channel 27","Micron Size 28","Counts/Channel 28","Micron Size 29","Counts/Channel 29","Micron Size 30","Counts/Channel 30","Micron Size 31","Counts/Channel 31"
"07/09/06","18:00:04","AMMA06",26627.000,"cc",28322.232,6.00,2832.223,1,6,0.100,16285.000,0.200,9294.000,0.300,882.000,0.500,95.000,1.000,71.000,5.000,0
"07/09/06","18:00:10","AMMA06",26283.000,"cc",28267.670,6.00,2826.767,1,6,0.100,15916.000,0.200,9256.000,0.300,952.000,0.500,102.000,1.000,57.000,5.000,0
"07/09/06","18:00:16","AMMA06",26433.000,"cc",28314.275,6.00,2831.428,1,6,0.100,15934.000,0.200,9340.000,0.300,992.000,0.500,108.000,1.000,59.000,5.000,0
"07/09/06","18:00:22","AMMA06",26709.000,"cc",28349.277,6.00,2834.928,1,6,0.100,16076.000,0.200,9492.000,0.300,957.000,0.500,116.000,1.000,68.000,5.000,0
"07/09/06","18:00:28","AMMA06",26555.000,"cc",28360.809,6.00,2836.081,1,6,0.100,16082.000,0.200,9333.000,0.300,959.000,0.500,114.000,1.000,67.000,5.000,0
"07/09/06","18:00:34","AMMA06",26294.000,"cc",28321.199,6.00,2832.120,1,6,0.100,15749.000,0.200,9432.000,0.300,947.000,0.500,93.000,1.000,73.000,5.000,0
"07/09/06","18:00:40","AMMA06",26623.000,"cc",28309.174,6.00,2830.918,1,6,0.100,16085.000,0.200,9421.000,0.300,955.000,0.500,113.000,1.000,49.000,5.000,0
"07/09/06","18:00:46","AMMA06",26327.000,"cc",28342.471,6.00,2834.247,1,6,0.100,15790.000,0.200,9442.000,0.300,949.000,0.500,96.000,1.000,50.000,5.000,0
"07/09/06","18:00:52","AMMA06",26522.000,"cc",28355.824,6.00,2835.583,1,6,0.100,15867.000,0.200,9559.000,0.300,947.000,0.500,92.000,1.000,57.000,5.000,0
"07/09/06","18:00:58","AMMA06",26787.000,"cc",28297.051,6.00,2829.705,1,6,0.100,16076.000,0.200,9571.000,0.300,967.000,0.500,118.000,1.000,55.000,5.000,0
"07/09/06","18:01:04","AMMA06",26161.000,"cc",28333.104,6.00,2833.311,1,6,0.100,15593.000,0.200,9335.000,0.300,1028.000,0.500,130.000,1.000,75.000,5.000,0
"07/09/06","18:01:10","AMMA06",26447.000,"cc",28281.498,6.00,2828.150,1,6,0.100,15746.000,0.200,9456.000,0.300,1063.000,0.500,117.000,1.000,65.000,5.000,0
"07/09/06","18:01:16","AMMA06",26373.000,"cc",28359.039,6.00,2835.904,1,6,0.100,15806.000,0.200,9450.000,0.300,950.000,0.500,99.000,1.000,68.000,5.000,0
"07/09/06","18:01:22","AMMA06",26283.000,"cc",28292.354,6.00,2829.236,1,6,0.100,15608.000,0.200,9570.000,0.300,944.000,0.500,101.000,1.000,60.000,5.000,0
"07/09/06","18:01:28","AMMA06",26307.000,"cc",28311.658,6.00,2831.166,1,6,0.100,15843.000,0.200,9281.000,0.300,1000.000,0.500,107.000,1.000,76.000,5.000,0
"07/09/06","18:01:34","AMMA06",26719.000,"cc",28299.613,6.00,2829.961,1,6,0.100,16219.000,0.200,9393.000,0.300,952.000,0.500,94.000,1.000,61.000,5.000,0
"07/09/06","18:01:40","AMMA06",26504.000,"cc",28331.133,6.00,2833.114,1,6,0.100,15902.000,0.200,9483.000,0.300,961.000,0.500,95.000,1.000,63.000,5.000,0
"07/09/06","18:01:46","AMMA06",26389.000,"cc",28309.213,6.00,2830.921,1,6,0.100,16022.000,0.200,9285.000,0.300,914.000,0.500,108.000,1.000,60.000,5.000,0
"07/09/06","18:01:52","AMMA06",26346.000,"cc",28269.711,6.00,2826.971,1,6,0.100,15716.000,0.200,9540.000,0.300,943.000,0.500,96.000,1.000,51.000,5.000,0
"07/09/06","18:01:58","AMMA06",26793.000,"cc",28355.682,6.00,2835.568,1,6,0.100,15786.000,0.200,9804.000,0.300,1023.000,0.500,109.000,1.000,71.000,5.000,0
"07/09/06","18:02:04","AMMA06",26435.000,"cc",28339.648,6.00,2833.965,1,6,0.100,15987.000,0.200,9290.000,0.300,990.000,0.500,109.000,1.000,59.000,5.000,0
"07/09/06","18:02:10","AMMA06",26567.000,"cc",28274.322,6.00,2827.432,1,6,0.100,15991.000,0.200,9391.000,0.300,997.000,0.500,114.000,1.000,74.000,5.000,0
"07/09/06","18:02:16","AMMA06",26778.000,"cc",28329.629,6.00,2832.963,1,6,0.100,16211.000,0.200,9373.000,0.300,1000.000,0.500,145.000,1.000,49.000,5.000,0
"07/09/06","18:02:22","AMMA06",26639.000,"cc",28367.311,6.00,2836.731,1,6,0.100,16039.000,0.200,9406.000,0.300,996.000,0.500,123.000,1.000,75.000,5.000,0
"07/09/06","18:02:28","AMMA06",26921.000,"cc",28285.111,6.00,2828.511,1,6,0.100,16232.000,0.200,9427.000,0.300,1043.000,0.500,147.000,1.000,72.000,5.000,0
"07/09/06","18:02:34","AMMA06",26285.000,"cc",28302.100,6.00,2830.210,1,6,0.100,15704.000,0.200,9387.000,0.300,1008.000,0.500,128.000,1.000,58.000,5.000,0
"07/09/06","18:02:40","AMMA06",26580.000,"cc",28290.590,6.00,2829.059,1,6,0.100,16023.000,0.200,9378.000,0.300,993.000,0.500,121.000,1.000,65.000,5.000,0
"07/09/06","18:02:46","AMMA06",26544.000,"cc",28298.027,6.00,2829.803,1,6,0.100,15982.000,0.200,9396.000,0.300,1004.000,0.500,105.000,1.000,57.000,5.000,0
"07/09/06","18:02:52","AMMA06",26518.000,"cc",28328.699,6.00,2832.870,1,6,0.100,15838.000,0.200,9554.000,0.300,965.000,0.500,89.000,1.000,72.000,5.000,0
"07/09/06","18:02:58","AMMA06",26836.000,"cc",28325.609,6.00,2832.561,1,6,0.100,16246.000,0.200,9472.000,0.300,935.000,0.500,117.000,1.000,66.000,5.000,0
"07/09/06","18:03:04","AMMA06",26734.000,"cc",28348.160,6.00,2834.816,1,6,0.100,16212.000,0.200,9378.000,0.300,967.000,0.500,112.000,1.000,65.000,5.000,0
"07/09/06","18:03:10","AMMA06",27004.000,"cc",28306.609,6.00,2830.661,1,6,0.100,16404.000,0.200,9476.000,0.300,975.000,0.500,98.000,1.000,51.000,5.000,0
"07/09/06","18:03:16","AMMA06",26418.000,"cc",28320.053,6.00,2832.005,1,6,0.100,15824.000,0.200,9412.000,0.300,1003.000,0.500,120.000,1.000,59.000,5.000,0
"07/09/06","18:03:22","AMMA06",26542.000,"cc",28296.471,6.00,2829.647,1,6,0.100,16025.000,0.200,9376.000,0.300,960.000,0.500,119.000,1.000,62.000,5.000,0
"07/09/06","18:03:28","AMMA06",26410.000,"cc",28307.039,6.00,2830.704,1,6,0.100,15941.000,0.200,9284.000,0.300,1019.000,0.500,112.000,1.000,54.000,5.000,0
"07/09/06","18:03:34","AMMA06",26447.000,"cc",28336.531,6.00,2833.653,1,6,0.100,16060.000,0.200,9219.000,0.300,1005.000,0.500,95.000,1.000,68.000,5.000,0
"07/09/06","18:03:40","AMMA06",26703.000,"cc",28281.522,6.00,2828.152,1,6,0.100,16199.000,0.200,9322.000,0.300,1001.000,0.500,122.000,1.000,59.000,5.000,0
"07/09/06","18:03:46","AMMA06",26395.000,"cc",28338.539,6.00,2833.854,1,6,0.100,15960.000,0.200,9300.000,0.300,930.000,0.500,133.000,1.000,72.000,5.000,0
"07/09/06","18:03:52","AMMA06",26432.000,"cc",28262.406,6.00,2826.241,1,6,0.100,15975.000,0.200,9311.000,0.300,971.000,0.500,109.000,1.000,66.000,5.000,0
"07/09/06","18:03:58","AMMA06",26523.000,"cc",28268.836,6.00,2826.884,1,6,0.100,15992.000,0.200,9400.000,0.300,944.000,0.500,129.000,1.000,58.000,5.000,0
"07/09/06","18:04:04","AMMA06",26386.000,"cc",28367.826,6.00,2836.783,1,6,0.100,15872.000,0.200,9324.000,0.300,1015.000,0.500,121.000,1.000,54.000,5.000,0
"07/09/06","18:04:10","AMMA06",26268.000,"cc",28298.545,6.00,2829.855,1,6,0.100,15911.000,0.200,9246.000,0.300,952.000,0.500,99.000,1.000,60.000,5.000,0
"07/09/06","18:04:16","AMMA06",26785.000,"cc",28369.828,6.00,2836.983,1,6,0.100,16155.000,0.200,9456.000,0.300,999.000,0.500,113.000,1.000,62.000,5.000,0
"07/09/06","18:04:22","AMMA06",26345.000,"cc",28345.356,6.00,2834.536,1,6,0.100,15925.000,0.200,9263.000,0.300,956.000,0.500,112.000,1.000,89.000,5.000,0
"07/09/06","18:04:28","AMMA06",26454.000,"cc",28291.492,6.00,2829.149,1,6,0.100,16114.000,0.200,9232.000,0.300,931.000,0.500,124.000,1.000,53.000,5.000,0
"07/09/06","18:04:34","AMMA06",26556.000,"cc",28277.348,6.00,2827.735,1,6,0.100,16103.000,0.200,9361.000,0.300,926.000,0.500,111.000,1.000,55.000,5.000,0
"07/09/06","18:04:40","AMMA06",26415.000,"cc",28322.047,6.00,2832.205,1,6,0.100,16043.000,0.200,9220.000,0.300,980.000,0.500,102.000,1.000,70.000,5.000,0
"07/09/06","18:04:46","AMMA06",26312.000,"cc",28347.635,6.00,2834.764,1,6,0.100,16124.000,0.200,9095.000,0.300,937.000,0.500,111.000,1.000,45.000,5.000,0
"07/09/06","18:04:52","AMMA06",26510.000,"cc",28304.971,6.00,2830.497,1,6,0.100,16034.000,0.200,9376.000,0.300,937.000,0.500,104.000,1.000,59.000,5.000,0
"07/09/06","18:04:58","AMMA06",26298.000,"cc",28364.508,6.00,2836.451,1,6,0.100,15961.000,0.200,9186.000,0.300,971.000,0.500,120.000,1.000,60.000,5.000,0
"07/09/06","18:05:04","AMMA06",26397.000,"cc",28319.178,6.00,2831.918,1,6,0.100,15944.000,0.200,9321.000,0.300,960.000,0.500,119.000,1.000,53.000,5.000,0
"07/09/06","18:05:10","AMMA06",26221.000,"cc",28304.281,6.00,2830.428,1,6,0.100,15890.000,0.200,9202.000,0.300,939.000,0.500,132.000,1.000,58.000,5.000,0
"07/09/06","18:05:16","AMMA06",26466.000,"cc",28337.723,6.00,2833.773,1,6,0.100,16039.000,0.200,9318.000,0.300,937.000,0.500,109.000,1.000,63.000,5.000,0
"07/09/06","18:05:22","AMMA06",26485.000,"cc",28322.826,6.00,2832.283,1,6,0.100,16121.000,0.200,9235.000,0.300,976.000,0.500,97.000,1.000,56.000,5.000,0
"07/09/06","18:05:28","AMMA06",26509.000,"cc",28273.711,6.00,2827.371,1,6,0.100,16152.000,0.200,9195.000,0.300,971.000,0.500,124.000,1.000,67.000,5.000,0
"07/09/06","18:05:34","AMMA06",26765.000,"cc",28344.398,6.00,2834.440,1,6,0.100,16225.000,0.200,9404.000,0.300,934.000,0.500,136.000,1.000,66.000,5.000,0
"07/09/06","18:05:40","AMMA06",26323.000,"cc",28332.227,6.00,2833.223,1,6,0.100,15954.000,0.200,9235.000,0.300,971.000,0.500,114.000,1.000,49.000,5.000,0
"07/09/06","18:05:46","AMMA06",26345.000,"cc",28330.035,6.00,2833.004,1,6,0.100,16037.000,0.200,9207.000,0.300,938.000,0.500,103.000,1.000,60.000,5.000,0
"07/09/06","18:05:52","AMMA06",26555.000,"cc",28254.322,6.00,2825.432,1,6,0.100,16104.000,0.200,9335.000,0.300,933.000,0.500,117.000,1.000,66.000,5.000,0
"07/09/06","18:05:58","AMMA06",26492.000,"cc",28327.172,6.00,2832.717,1,6,0.100,16168.000,0.200,9265.000,0.300,897.000,0.500,95.000,1.000,67.000,5.000,0
"07/09/06","18:06:04","AMMA06",26400.000,"cc",28323.643,6.00,2832.365,1,6,0.100,16000.000,0.200,9276.000,0.300,937.000,0.500,121.000,1.000,66.000,5.000,0
"07/09/06","18:06:10","AMMA06",26481.000,"cc",28305.971,6.00,2830.597,1,6,0.100,16046.000,0.200,9367.000,0.300,906.000,0.500,104.000,1.000,58.000,5.000,0
"07/09/06","18:06:16","AMMA06",26318.000,"cc",28333.160,6.00,2833.316,1,6,0.100,16189.000,0.200,9090.000,0.300,863.000,0.500,112.000,1.000,64.000,5.000,0
"07/09/06","18:06:22","AMMA06",26403.000,"cc",28320.857,6.00,2832.086,1,6,0.100,16077.000,0.200,9169.000,0.300,985.000,0.500,120.000,1.000,52.000,5.000,0
"07/09/06","18:06:28","AMMA06",26436.000,"cc",28312.943,6.00,2831.294,1,6,0.100,16299.000,0.200,9055.000,0.300,938.000,0.500,90.000,1.000,54.000,5.000,0
"07/09/06","18:06:34","AMMA06",26384.000,"cc",28304.647,6.00,2830.465,1,6,0.100,15992.000,0.200,9238.000,0.300,994.000,0.500,105.000,1.000,55.000,5.000,0
"07/09/06","18:06:40","AMMA06",26784.000,"cc",28283.385,6.00,2828.339,1,6,0.100,16232.000,0.200,9477.000,0.300,923.000,0.500,102.000,1.000,50.000,5.000,0
"07/09/06","18:06:46","AMMA06",26818.000,"cc",28340.369,6.00,2834.037,1,6,0.100,16427.000,0.200,9286.000,0.300,924.000,0.500,115.000,1.000,66.000,5.000,0
"07/09/06","18:06:52","AMMA06",26522.000,"cc",28355.250,6.00,2835.525,1,6,0.100,16120.000,0.200,9345.000,0.300,903.000,0.500,106.000,1.000,48.000,5.000,0
"07/09/06","18:06:58","AMMA06",26622.000,"cc",28291.430,6.00,2829.143,1,6,0.100,16322.000,0.200,9228.000,0.300,909.000,0.500,103.000,1.000,60.000,5.000,0
"07/09/06","18:07:04","AMMA06",26544.000,"cc",28294.551,6.00,2829.455,1,6,0.100,16277.000,0.200,9132.000,0.300,980.000,0.500,102.000,1.000,53.000,5.000,0
"07/09/06","18:07:10","AMMA06",26461.000,"cc",28365.455,6.00,2836.546,1,6,0.100,16125.000,0.200,9234.000,0.300,911.000,0.500,125.000,1.000,66.000,5.000,0
"07/09/06","18:07:16","AMMA06",26493.000,"cc",28320.107,6.00,2832.011,1,6,0.100,16211.000,0.200,9141.000,0.300,977.000,0.500,108.000,1.000,56.000,5.000,0
"07/09/06","18:07:22","AMMA06",26642.000,"cc",28284.139,6.00,2828.414,1,6,0.100,16410.000,0.200,9121.000,0.300,924.000,0.500,126.000,1.000,61.000,5.000,0
"07/09/06","18:07:28","AMMA06",26441.000,"cc",28296.678,6.00,2829.668,1,6,0.100,16112.000,0.200,9244.000,0.300,918.000,0.500,110.000,1.000,57.000,5.000,0
"07/09/06","18:07:34","AMMA06",26687.000,"cc",28325.160,6.00,2832.516,1,6,0.100,16398.000,0.200,9214.000,0.300,898.000,0.500,124.000,1.000,53.000,5.000,0
"07/09/06","18:07:40","AMMA06",26347.000,"cc",28290.541,6.00,2829.054,1,6,0.100,16166.000,0.200,9043.000,0.300,953.000,0.500,117.000,1.000,68.000,5.000,0
"07/09/06","18:07:46","AMMA06",26510.000,"cc",28403.094,6.00,2840.310,1,6,0.100,16272.000,0.200,9129.000,0.300,931.000,0.500,120.000,1.000,58.000,5.000,0
"07/09/06","18:07:52","AMMA06",26404.000,"cc",28296.121,6.00,2829.612,1,6,0.100,16019.000,0.200,9309.000,0.300,911.000,0.500,93.000,1.000,72.000,5.000,0
"07/09/06","18:07:58","AMMA06",26439.000,"cc",28239.539,6.00,2823.954,1,6,0.100,16115.000,0.200,9205.000,0.300,959.000,0.500,111.000,1.000,49.000,5.000,0
"07/09/06","18:08:04","AMMA06",26366.000,"cc",28360.438,6.00,2836.044,1,6,0.100,15956.000,0.200,9319.000,0.300,940.000,0.500,98.000,1.000,53.000,5.000,0
"07/09/06","18:08:10","AMMA06",26689.000,"cc",28320.156,6.00,2832.016,1,6,0.100,15928.000,0.200,9635.000,0.300,954.000,0.500,115.000,1.000,57.000,5.000,0
"07/09/06","18:08:16","AMMA06",26706.000,"cc",28326.572,6.00,2832.658,1,6,0.100,16165.000,0.200,9410.000,0.300,958.000,0.500,112.000,1.000,61.000,5.000,0
"07/09/06","18:08:22","AMMA06",26579.000,"cc",28305.016,6.00,2830.502,1,6,0.100,16119.000,0.200,9373.000,0.300,921.000,0.500,100.000,1.000,66.000,5.000,0
"07/09/06","18:08:28","AMMA06",26553.000,"cc",28294.014,6.00,2829.402,1,6,0.100,16018.000,0.200,9466.000,0.300,907.000,0.500,109.000,1.000,53.000,5.000,0
"07/09/06","18:08:34","AMMA06",26857.000,"cc",28315.527,6.00,2831.553,1,6,0.100,16179.000,0.200,9566.000,0.300,982.000,0.500,81.000,1.000,49.000,5.000,0
"07/09/06","18:08:40","AMMA06",26533.000,"cc",28315.553,6.00,2831.555,1,6,0.100,15859.000,0.200,9460.000,0.300,1038.000,0.500,119.000,1.000,57.000,5.000,0
"07/09/06","18:08:46","AMMA06",26991.000,"cc",28289.813,6.00,2828.981,1,6,0.100,16238.000,0.200,9610.000,0.300,952.000,0.500,122.000,1.000,69.000,5.000,0
"07/09/06","18:08:52","AMMA06",26788.000,"cc",28321.656,6.00,2832.166,1,6,0.100,16071.000,0.200,9616.000,0.300,947.000,0.500,107.000,1.000,47.000,5.000,0
"07/09/06","18:08:58","AMMA06",27030.000,"cc",28321.158,6.00,2832.116,1,6,0.100,16338.000,0.200,9545.000,0.300,962.000,0.500,107.000,1.000,78.000,5.000,0
"07/09/06","18:09:04","AMMA06",26613.000,"cc",28302.740,6.00,2830.274,1,6,0.100,15955.000,0.200,9514.000,0.300,967.000,0.500,114.000,1.000,63.000,5.000,0
"07/09/06","18:09:10","AMMA06",27068.000,"cc",28346.986,6.00,2834.699,1,6,0.100,16155.000,0.200,9729.000,0.300,981.000,0.500,128.000,1.000,75.000,5.000,0
"07/09/06","18:09:16","AMMA06",26797.000,"cc",28365.482,6.00,2836.548,1,6,0.100,16130.000,0.200,9484.000,0.300,989.000,0.500,128.000,1.000,66.000,5.000,0
"07/09/06","18:09:22","AMMA06",26752.000,"cc",28319.691,6.00,2831.969,1,6,0.100,16007.000,0.200,9632.000,0.300,935.000,0.500,112.000,1.000,66.000,5.000,0
"07/09/06","18:09:28","AMMA06",26644.000,"cc",28286.520,6.00,2828.652,1,6,0.100,16171.000,0.200,9350.000,0.300,965.000,0.500,99.000,1.000,59.000,5.000,0
"07/09/06","18:09:34","AMMA06",26557.000,"cc",28336.152,6.00,2833.616,1,6,0.100,15862.000,0.200,9519.000,0.300,1004.000,0.500,107.000,1.000,65.000,5.000,0
"07/09/06","18:09:40","AMMA06",26808.000,"cc",28337.215,6.00,2833.722,1,6,0.100,16099.000,0.200,9532.000,0.300,1006.000,0.500,136.000,1.000,35.000,5.000,0
"07/09/06","18:09:46","AMMA06",26879.000,"cc",28329.648,6.00,2832.965,1,6,0.100,16141.000,0.200,9580.000,0.300,992.000,0.500,112.000,1.000,54.000,5.000,0
"07/09/06","18:09:52","AMMA06",26682.000,"cc",28311.693,6.00,2831.169,1,6,0.100,15937.000,0.200,9530.000,0.300,1025.000,0.500,126.000,1.000,64.000,5.000,0
"07/09/06","18:09:58","AMMA06",26937.000,"cc",28320.311,6.00,2832.031,1,6,0.100,16176.000,0.200,9598.000,0.300,986.000,0.500,105.000,1.000,72.000,5.000,0
"07/09/06","18:10:04","AMMA06",26722.000,"cc",28274.168,6.00,2827.417,1,6,0.100,15911.000,0.200,9595.000,0.300,1003.000,0.500,134.000,1.000,79.000,5.000,0
"07/09/06","18:10:10","AMMA06",26313.000,"cc",28317.295,6.00,2831.730,1,6,0.100,15734.000,0.200,9404.000,0.300,984.000,0.500,130.000,1.000,61.000,5.000,0
"07/09/06","18:10:16","AMMA06",26557.000,"cc",28260.387,6.00,2826.039,1,6,0.100,15954.000,0.200,9407.000,0.300,993.000,0.500,133.000,1.000,70.000,5.000,0
"07/09/06","18:10:22","AMMA06",26809.000,"cc",28311.445,6.00,2831.145,1,6,0.100,16326.000,0.200,9391.000,0.300,927.000,0.500,104.000,1.000,61.000,5.000,0
"07/09/06","18:10:28","AMMA06",27175.000,"cc",28310.356,6.00,2831.036,1,6,0.100,16276.000,0.200,9610.000,0.300,1086.000,0.500,146.000,1.000,57.000,5.000,0
"07/09/06","18:10:34","AMMA06",27081.000,"cc",28333.695,6.00,2833.370,1,6,0.100,16278.000,0.200,9502.000,0.300,1065.000,0.500,167.000,1.000,69.000,5.000,0
"07/09/06","18:10:40","AMMA06",26839.000,"cc",28367.266,6.00,2836.727,1,6,0.100,16200.000,0.200,9491.000,0.300,977.000,0.500,108.000,1.000,63.000,5.000,0
"07/09/06","18:10:46","AMMA06",26794.000,"cc",28263.686,6.00,2826.369,1,6,0.100,16149.000,0.200,9474.000,0.300,1009.000,0.500,115.000,1.000,47.000,5.000,0
"07/09/06","18:10:52","AMMA06",26695.000,"cc",28326.373,6.00,2832.638,1,6,0.100,16073.000,0.200,9436.000,0.300,1015.000,0.500,113.000,1.000,58.000,5.000,0
"07/09/06","18:10:58","AMMA06",26570.000,"cc",28302.262,6.00,2830.226,1,6,0.100,15914.000,0.200,9546.000,0.300,929.000,0.500,115.000,1.000,66.000,5.000,0
"07/09/06","18:11:04","AMMA06",26429.000,"cc",28299.783,6.00,2829.979,1,6,0.100,15843.000,0.200,9442.000,0.300,985.000,0.500,102.000,1.000,57.000,5.000,0
"07/09/06","18:11:10","AMMA06",27055.000,"cc",28326.834,6.00,2832.684,1,6,0.100,16163.000,0.200,9549.000,0.300,1046.000,0.500,191.000,1.000,106.000,5.000,0
"07/09/06","18:11:16","AMMA06",26837.000,"cc",28321.453,6.00,2832.146,1,6,0.100,16064.000,0.200,9517.000,0.300,1069.000,0.500,131.000,1.000,56.000,5.000,0
"07/09/06","18:11:22","AMMA06",26971.000,"cc",28367.744,6.00,2836.775,1,6,0.100,16310.000,0.200,9399.000,0.300,1037.000,0.500,141.000,1.000,84.000,5.000,0
"07/09/06","18:11:28","AMMA06",26510.000,"cc",28339.375,6.00,2833.938,1,6,0.100,16032.000,0.200,9398.000,0.300,921.000,0.500,108.000,1.000,51.000,5.000,0
"07/09/06","18:11:34","AMMA06",26532.000,"cc",28267.272,6.00,2826.727,1,6,0.100,16054.000,0.200,9332.000,0.300,971.000,0.500,123.000,1.000,52.000,5.000,0
"07/09/06","18:11:40","AMMA06",26707.000,"cc",28318.174,6.00,2831.818,1,6,0.100,16146.000,0.200,9387.000,0.300,985.000,0.500,127.000,1.000,62.000,5.000,0
"07/09/06","18:11:46","AMMA06",26460.000,"cc",28298.543,6.00,2829.855,1,6,0.100,16040.000,0.200,9316.000,0.300,928.000,0.500,112.000,1.000,64.000,5.000,0
"07/09/06","18:11:52","AMMA06",26359.000,"cc",28331.938,6.00,2833.194,1,6,0.100,15858.000,0.200,9373.000,0.300,952.000,0.500,118.000,1.000,58.000,5.000,0
"07/09/06","18:11:58","AMMA06",26433.000,"cc",28333.330,6.00,2833.333,1,6,0.100,16051.000,0.200,9297.000,0.300,923.000,0.500,94.000,1.000,68.000,5.000,0
"07/09/06","18:12:04","AMMA06",26230.000,"cc",28253.777,6.00,2825.378,1,6,0.100,15945.000,0.200,9257.000,0.300,877.000,0.500,111.000,1.000,40.000,5.000,0
"07/09/06","18:12:10","AMMA06",26444.000,"cc",28323.453,6.00,2832.346,1,6,0.100,16126.000,0.200,9231.000,0.300,932.000,0.500,102.000,1.000,53.000,5.000,0
"07/09/06","18:12:16","AMMA06",26585.000,"cc",28283.414,6.00,2828.342,1,6,0.100,16143.000,0.200,9371.000,0.300,899.000,0.500,116.000,1.000,56.000,5.000,0
"07/09/06","18:12:22","AMMA06",26307.000,"cc",28292.734,6.00,2829.274,1,6,0.100,16005.000,0.200,9253.000,0.300,907.000,0.500,88.000,1.000,54.000,5.000,0
"07/09/06","18:12:28","AMMA06",26422.000,"cc",28299.316,6.00,2829.932,1,6,0.100,16044.000,0.200,9326.000,0.300,905.000,0.500,98.000,1.000,49.000,5.000,0
"07/09/06","18:12:34","AMMA06",26119.000,"cc",28342.918,6.00,2834.292,1,6,0.100,16021.000,0.200,9028.000,0.300,919.000,0.500,101.000,1.000,50.000,5.000,0
"07/09/06","18:12:40","AMMA06",26502.000,"cc",28387.969,6.00,2838.797,1,6,0.100,16125.000,0.200,9270.000,0.300,934.000,0.500,115.000,1.000,58.000,5.000,0
"07/09/06","18:12:46","AMMA06",26291.000,"cc",28272.604,6.00,2827.261,1,6,0.100,16015.000,0.200,9144.000,0.300,943.000,0.500,121.000,1.000,68.000,5.000,0
"07/09/06","18:12:52","AMMA06",26396.000,"cc",28281.797,6.00,2828.180,1,6,0.100,16111.000,0.200,9164.000,0.300,948.000,0.500,121.000,1.000,52.000,5.000,0
"07/09/06","18:12:58","AMMA06",26179.000,"cc",28306.832,6.00,2830.683,1,6,0.100,15907.000,0.200,9173.000,0.300,931.000,0.500,108.000,1.000,60.000,5.000,0
"07/09/06","18:13:05","AMMA06",25831.000,"cc",28315.371,6.00,2831.537,1,6,0.100,15912.000,0.200,8856.000,0.300,903.000,0.500,120.000,1.000,40.000,5.000,0
"07/09/06","18:13:11","AMMA06",25907.000,"cc",28375.945,6.00,2837.595,1,6,0.100,15797.000,0.200,9045.000,0.300,888.000,0.500,118.000,1.000,59.000,5.000,0
"07/09/06","18:13:17","AMMA06",26039.000,"cc",28325.430,6.00,2832.543,1,6,0.100,15801.000,0.200,9165.000,0.300,921.000,0.500,94.000,1.000,58.000,5.000,0
"07/09/06","18:13:23","AMMA06",26570.000,"cc",28319.793,6.00,2831.980,1,6,0.100,16268.000,0.200,9217.000,0.300,929.000,0.500,106.000,1.000,50.000,5.000,0
"07/09/06","18:13:29","AMMA06",25852.000,"cc",28352.266,6.00,2835.227,1,6,0.100,15743.000,0.200,9055.000,0.300,907.000,0.500,82.000,1.000,65.000,5.000,0
"07/09/06","18:13:35","AMMA06",25804.000,"cc",28310.928,6.00,2831.093,1,6,0.100,15832.000,0.200,8924.000,0.300,887.000,0.500,112.000,1.000,49.000,5.000,0
"07/09/06","18:13:41","AMMA06",25735.000,"cc",28301.080,6.00,2830.108,1,6,0.100,15907.000,0.200,8729.000,0.300,926.000,0.500,110.000,1.000,63.000,5.000,0
"07/09/06","18:13:47","AMMA06",25943.000,"cc",28323.504,6.00,2832.351,1,6,0.100,15934.000,0.200,8975.000,0.300,880.000,0.500,97.000,1.000,57.000,5.000,0
"07/09/06","18:13:53","AMMA06",25734.000,"cc",28287.545,6.00,2828.755,1,6,0.100,15766.000,0.200,8902.000,0.300,896.000,0.500,97.000,1.000,73.000,5.000,0
"07/09/06","18:13:59","AMMA06",25565.000,"cc",28345.938,6.00,2834.594,1,6,0.100,15515.000,0.200,8997.000,0.300,897.000,0.500,97.000,1.000,59.000,5.000,0
"07/09/06","18:14:05","AMMA06",25618.000,"cc",28308.623,6.00,2830.863,1,6,0.100,15817.000,0.200,8784.000,0.300,852.000,0.500,109.000,1.000,56.000,5.000,0
"07/09/06","18:14:11","AMMA06",25727.000,"cc",28300.272,6.00,2830.027,1,6,0.100,15615.000,0.200,9037.000,0.300,925.000,0.500,102.000,1.000,48.000,5.000,0
"07/09/06","18:14:17","AMMA06",25752.000,"cc",28390.684,6.00,2839.069,1,6,0.100,15844.000,0.200,8883.000,0.300,889.000,0.500,93.000,1.000,43.000,5.000,0
"07/09/06","18:14:23","AMMA06",25390.000,"cc",28269.596,6.00,2826.960,1,6,0.100,15441.000,0.200,8916.000,0.300,876.000,0.500,104.000,1.000,53.000,5.000,0
"07/09/06","18:14:29","AMMA06",25374.000,"cc",28304.711,6.00,2830.471,1,6,0.100,15606.000,0.200,8740.000,0.300,882.000,0.500,94.000,1.000,52.000,5.000,0
"07/09/06","18:14:35","AMMA06",25364.000,"cc",28284.315,6.00,2828.432,1,6,0.100,15649.000,0.200,8665.000,0.300,894.000,0.500,102.000,1.000,54.000,5.000,0